Regional Weather Roundup
Issued by NWS Green Bay, WI

Home | Current Version | Previous Version | Text Only | Print | Product List | Glossary On
Versions: 1 2 3 4 5 6 7 8 9 10 11 12 13 14 15 16 17 18 19 20 21 22 23 24 25 26 27 28 29 30 31 32 33 34 35 36 37 38 39 40 41 42 43 44 45 46 47 48 49 50
000
ASUS43 KGRB 311100
RWRGRB

NORTH-CENTRAL AND NORTHEAST WISCONSIN REGIONAL WEATHER ROUNDUP
NATIONAL WEATHER SERVICE GREEN BAY WI
600 AM CDT FRI JUL 31 2015

WIZ005-009-010>012-018-019-311200-
NORTH CENTRAL WISCONSIN

CITY           SKY/WX    TMP DP  RH WIND       PRES   REMARKS
IRONWOOD       PTCLDY    61  55  82 W8        29.88R
MANITOWISH WTR NOT AVBL
ARBOR VITAE    NOT AVBL
EAGLE RIVER    NOT AVBL
LAND O LAKES   NOT AVBL
RHINELANDER    CLOUDY    61  55  81 W10       29.94S
PHILLIPS       PTCLDY    59  56  89 CALM      29.94S
ANTIGO         NOT AVBL
TOMAHAWK       NOT AVBL
MERRILL        NOT AVBL
$$

WIZ013-073-311200-
NORTHEAST WISCONSIN

CITY           SKY/WX    TMP DP  RH WIND       PRES   REMARKS
IRON MOUNTAIN  CLEAR     61  55  81 W5        29.86F
MARINETTE      CLEAR     63  54  72 W6        29.87F
$$

WIZ017-030-035>037-045-311200-
CENTRAL WISCONSIN

CITY           SKY/WX    TMP DP  RH WIND       PRES   REMARKS
MEDFORD        NOT AVBL
WAUSAU         CLEAR     64  56  75 NW12      29.93S
MOSINEE        CLEAR     61  57  88 W8        29.97S
MARSHFIELD     CLEAR     62  55  77 W6        29.97S
WISC RAPIDS    CLEAR     62  57  83 W7        29.98F
STEVENS POINT  NOT AVBL
WAUPACA        NOT AVBL
SHAWANO        NOT AVBL
CLINTONVILLE   CLEAR     63  55  77 W7        29.93S
$$

WIZ038-039-048-051-311200-
FOX VALLEY

CITY           SKY/WX    TMP DP  RH WIND       PRES   REMARKS
NWS GREEN BAY  CLEAR     64  58  80 W8        29.92F
APPLETON       PTCLDY    63  55  77 W8        29.95S
OSHKOSH        CLEAR     66  57  72 W6        29.95S
FOND DU LAC    PTCLDY    63  57  81 SW6       29.97S
$$

WIZ022-050-052-311200-
EAST CENTRAL WISCONSIN

CITY           SKY/WX    TMP DP  RH WIND       PRES   REMARKS
STURGEON BAY   CLOUDY    64  57  77 W7        29.92S
MANITOWOC      NOT AVBL
SHEBOYGAN      CLEAR     63  58  83 W9        29.95S
$$

LMZ563-521-522-541>543-311200-
LAKESHORE

STATION/POSITION TIME  TEMP    WIND        PRES    VSBY  WAVE
                       AIR SEA DIR/SP/G                  HT/PER
                 (UTC) (F)     (DEG/KT/KT) (MB)    (MI)  (FT/S)
SHEBOYGAN LKSHOR 1000   68     250/ 10/ 12 1014.2R
KEWAUNEE LKSHORE 1000   67     290/  5/  7 1012.4S
ALGOMA MARINA    1012          250/  4/  8   N/A
NORTHPORT PIER   1000   68     270/  5/ 22 1011.2F
N MID LAKE BUOY  0950   69 68  260/ 12/ 16 1010.4F         2/ 4
S GREEN BAY BUOY 1000   65 66  260/ 10/ 12 1013.8R
SISTER BAY LKSHO 1014   69     300/ 17/ 19   N/A
CHAMBERS ISLAND  1000   65     220/  6/ 10 1011.5S
MENOMINEE LKSHOR 1000   66     250/  9/ 11 1012.7S
$$



USA.gov is the U.S. government's official web portal to all federal, state and local government web resources and services.